Time,TemperatureF,DewpointF,PressureIn,WindDirection,WindDirectionDegrees,WindSpeedMPH,WindSpeedGustMPH,Humidity,HourlyPrecipIn,Conditions,Clouds,dailyrainin,SoftwareType,DateUTC
2013-02-12 00:02:00,19.0,-99.9,-100.00,ESE,113,1.0,5.0,-999,0.00,,,0.20,,2013-02-12 05:02:00,
2013-02-12 00:11:00,19.0,-99.9,-100.00,ESE,113,0.0,7.0,-999,0.00,,,0.15,,2013-02-12 05:11:00,
2013-02-12 00:22:00,19.0,-99.9,-100.00,ESE,113,0.0,7.0,-999,0.00,,,0.15,,2013-02-12 05:22:00,
2013-02-12 00:32:00,19.0,-99.9,-100.00,ESE,113,1.0,6.0,-999,0.00,,,0.13,,2013-02-12 05:32:00,
2013-02-12 00:42:00,19.0,-99.9,-100.00,ESE,113,1.0,6.0,-999,0.00,,,0.13,,2013-02-12 05:42:00,
2013-02-12 00:52:00,20.0,-99.9,-100.00,ESE,113,1.0,6.0,-999,0.00,,,0.12,,2013-02-12 05:52:00,
2013-02-12 01:02:00,19.0,-99.9,-100.00,ESE,113,2.0,5.0,-999,0.00,,,0.11,,2013-02-12 06:02:00,
2013-02-12 01:12:00,19.0,-99.9,-100.00,ESE,113,1.0,6.0,-999,0.00,,,0.11,,2013-02-12 06:12:00,
2013-02-12 01:22:00,19.0,-99.9,-100.00,ESE,113,1.0,6.0,-999,0.00,,,0.11,,2013-02-12 06:22:00,
2013-02-12 01:32:00,20.0,-99.9,-100.00,ESE,113,1.0,7.0,-999,0.00,,,0.11,,2013-02-12 06:32:00,
2013-02-12 01:42:00,20.0,-99.9,-100.00,ESE,113,1.0,7.0,-999,0.00,,,0.11,,2013-02-12 06:42:00,
2013-02-12 01:52:00,20.0,-99.9,-100.00,ESE,113,1.0,7.0,-999,0.00,,,0.11,,2013-02-12 06:52:00,
2013-02-12 02:02:00,20.0,-99.9,-100.00,ESE,113,1.0,6.0,-999,0.00,,,0.11,,2013-02-12 07:02:00,
2013-02-12 02:12:00,20.0,-99.9,-100.00,ESE,113,1.0,6.0,-999,0.00,,,0.11,,2013-02-12 07:12:00,
2013-02-12 02:22:00,19.0,-99.9,-100.00,ESE,113,0.0,3.0,-999,0.00,,,0.11,,2013-02-12 07:22:00,
2013-02-12 02:32:00,19.0,-99.9,-100.00,ESE,113,1.0,6.0,-999,0.00,,,0.11,,2013-02-12 07:32:00,
2013-02-12 02:42:00,19.0,-99.9,-100.00,ESE,113,1.0,6.0,-999,0.00,,,0.11,,2013-02-12 07:42:00,
2013-02-12 02:52:00,19.0,-99.9,-100.00,ESE,113,1.0,8.0,-999,0.00,,,0.11,,2013-02-12 07:52:00,
2013-02-12 03:01:00,19.0,-99.9,-100.00,ESE,113,1.0,7.0,-999,0.00,,,0.10,,2013-02-12 08:01:00,
2013-02-12 03:11:00,19.0,-99.9,-100.00,ESE,113,1.0,7.0,-999,0.00,,,0.10,,2013-02-12 08:11:00,
2013-02-12 03:22:00,19.0,-99.9,-100.00,ESE,113,0.0,6.0,-999,0.00,,,0.10,,2013-02-12 08:22:00,
2013-02-12 03:32:00,19.0,-99.9,-100.00,ESE,113,3.0,5.0,-999,0.00,,,0.10,,2013-02-12 08:32:00,
2013-02-12 03:42:00,19.0,-99.9,-100.00,ESE,113,3.0,5.0,-999,0.00,,,0.10,,2013-02-12 08:42:00,
2013-02-12 03:52:00,19.0,-99.9,-100.00,ESE,113,1.0,3.0,-999,0.00,,,0.10,,2013-02-12 08:52:00,
2013-02-12 04:02:00,19.0,-99.9,-100.00,ESE,113,1.0,3.0,-999,0.00,,,0.09,,2013-02-12 09:02:00,
2013-02-12 04:12:00,19.0,-99.9,-100.00,ESE,113,1.0,3.0,-999,0.00,,,0.09,,2013-02-12 09:12:00,
2013-02-12 04:22:00,18.0,-99.9,-100.00,ESE,113,1.0,3.0,-999,0.00,,,0.09,,2013-02-12 09:22:00,
2013-02-12 04:32:00,18.0,-99.9,-100.00,ESE,113,1.0,3.0,-999,0.00,,,0.09,,2013-02-12 09:32:00,
2013-02-12 04:42:00,18.0,-99.9,-100.00,ESE,113,3.0,8.0,-999,0.00,,,0.09,,2013-02-12 09:42:00,
2013-02-12 04:52:00,18.0,-99.9,-100.00,ESE,113,3.0,8.0,-999,0.00,,,0.09,,2013-02-12 09:52:00,
2013-02-12 05:02:00,18.0,-99.9,-100.00,ESE,113,1.0,6.0,-999,0.00,,,0.09,,2013-02-12 10:02:00,
2013-02-12 05:11:00,18.0,-99.9,-100.00,ESE,113,0.0,5.0,-999,0.00,,,0.09,,2013-02-12 10:11:00,
2013-02-12 05:22:00,18.0,-99.9,-100.00,ESE,113,0.0,5.0,-999,0.00,,,0.09,,2013-02-12 10:22:00,
2013-02-12 05:32:00,18.0,-99.9,-100.00,ESE,113,0.0,7.0,-999,0.00,,,0.09,,2013-02-12 10:32:00,
2013-02-12 05:43:00,18.0,-99.9,-100.00,ESE,113,0.0,7.0,-999,0.00,,,0.09,,2013-02-12 10:43:00,
2013-02-12 05:52:00,18.0,-99.9,-100.00,ESE,113,0.0,3.0,-999,0.00,,,0.09,,2013-02-12 10:52:00,
2013-02-12 06:02:00,18.0,-99.9,-100.00,ESE,113,0.0,3.0,-999,0.00,,,0.08,,2013-02-12 11:02:00,
2013-02-12 06:11:00,18.0,-99.9,-100.00,ESE,113,0.0,3.0,-999,0.00,,,0.08,,2013-02-12 11:11:00,
2013-02-12 06:22:00,18.0,-99.9,-100.00,ESE,113,0.0,6.0,-999,0.00,,,0.08,,2013-02-12 11:22:00,
2013-02-12 06:32:00,18.0,-99.9,-100.00,ESE,113,1.0,3.0,-999,0.00,,,0.08,,2013-02-12 11:32:00,
2013-02-12 06:42:00,18.0,-99.9,-100.00,ESE,113,1.0,3.0,-999,0.00,,,0.08,,2013-02-12 11:42:00,
2013-02-12 06:53:00,18.0,-99.9,-100.00,ESE,113,1.0,3.0,-999,0.00,,,0.08,,2013-02-12 11:53:00,
2013-02-12 07:02:00,18.0,-99.9,-100.00,ESE,113,0.0,3.0,-999,0.00,,,0.07,,2013-02-12 12:02:00,
2013-02-12 07:11:00,18.0,-99.9,-100.00,ESE,113,1.0,3.0,-999,0.00,,,0.06,,2013-02-12 12:11:00,
2013-02-12 07:22:00,18.0,-99.9,-100.00,ESE,113,1.0,3.0,-999,0.00,,,0.06,,2013-02-12 12:22:00,
2013-02-12 07:32:00,18.0,-99.9,-100.00,ESE,113,0.0,3.0,-999,0.00,,,0.05,,2013-02-12 12:32:00,
2013-02-12 07:42:00,18.0,-99.9,-100.00,ESE,113,0.0,3.0,-999,0.00,,,0.05,,2013-02-12 12:42:00,
2013-02-12 07:53:00,18.0,-99.9,-100.00,ESE,113,0.0,3.0,-999,0.00,,,0.05,,2013-02-12 12:53:00,
2013-02-12 08:02:00,17.0,-99.9,-100.00,ESE,113,0.0,3.0,-999,0.00,,,0.05,,2013-02-12 13:02:00,
2013-02-12 08:11:00,18.0,-99.9,-100.00,ESE,113,1.0,3.0,-999,0.00,,,0.05,,2013-02-12 13:11:00,
2013-02-12 08:22:00,18.0,-99.9,-100.00,ESE,113,1.0,3.0,-999,0.00,,,0.05,,2013-02-12 13:22:00,
2013-02-12 08:32:00,17.0,-99.9,-100.00,ESE,113,2.0,6.0,-999,0.00,,,0.05,,2013-02-12 13:32:00,
2013-02-12 08:42:00,17.0,-99.9,-100.00,ESE,113,2.0,6.0,-999,0.00,,,0.05,,2013-02-12 13:42:00,
2013-02-12 08:52:00,18.0,-99.9,-100.00,ESE,113,0.0,3.0,-999,0.00,,,0.04,,2013-02-12 13:52:00,
2013-02-12 09:01:00,18.0,-99.9,-100.00,ESE,113,0.0,5.0,-999,0.00,,,0.04,,2013-02-12 14:01:00,
2013-02-12 09:12:00,18.0,-99.9,-100.00,ESE,113,0.0,5.0,-999,0.00,,,0.04,,2013-02-12 14:12:00,
2013-02-12 09:22:00,18.0,-99.9,-100.00,ESE,113,0.0,3.0,-999,0.00,,,0.03,,2013-02-12 14:22:00,
2013-02-12 09:32:00,18.0,-99.9,-100.00,ESE,113,1.0,5.0,-999,0.00,,,0.02,,2013-02-12 14:32:00,
2013-02-12 09:42:00,18.0,-99.9,-100.00,ESE,113,1.0,5.0,-999,0.00,,,0.02,,2013-02-12 14:42:00,
2013-02-12 09:52:00,19.0,-99.9,-100.00,ESE,113,0.0,5.0,-999,0.00,,,0.01,,2013-02-12 14:52:00,
2013-02-12 10:02:00,19.0,-99.9,-100.00,ESE,113,2.0,5.0,-999,0.00,,,0.01,,2013-02-12 15:02:00,
2013-02-12 10:11:00,20.0,-99.9,-100.00,ESE,113,0.0,6.0,-999,0.00,,,0.00,,2013-02-12 15:11:00,
2013-02-12 10:22:00,20.0,-99.9,-100.00,ESE,113,0.0,6.0,-999,0.00,,,0.00,,2013-02-12 15:22:00,
2013-02-12 10:32:00,20.0,-99.9,-100.00,ESE,113,2.0,6.0,-999,0.00,,,0.00,,2013-02-12 15:32:00,
2013-02-12 10:42:00,20.0,-99.9,-100.00,ESE,113,2.0,6.0,-999,0.00,,,0.00,,2013-02-12 15:42:00,
2013-02-12 10:52:00,20.0,-99.9,-100.00,ESE,113,1.0,7.0,-999,0.00,,,0.00,,2013-02-12 15:52:00,
2013-02-12 11:02:00,20.0,-99.9,-100.00,ESE,113,3.0,10.0,-999,0.00,,,0.00,,2013-02-12 16:02:00,
2013-02-12 11:11:00,20.0,-99.9,-100.00,ESE,113,3.0,10.0,-999,0.00,,,0.00,,2013-02-12 16:11:00,
2013-02-12 11:22:00,21.0,-99.9,-100.00,ESE,113,0.0,9.0,-999,0.00,,,0.00,,2013-02-12 16:22:00,
2013-02-12 11:32:00,21.0,-99.9,-100.00,ESE,113,1.0,7.0,-999,0.00,,,0.00,,2013-02-12 16:32:00,
2013-02-12 11:42:00,21.0,-99.9,-100.00,ESE,113,1.0,7.0,-999,0.00,,,0.00,,2013-02-12 16:42:00,
2013-02-12 11:52:00,21.0,-99.9,-100.00,ESE,113,2.0,3.0,-999,0.00,,,0.00,,2013-02-12 16:52:00,
2013-02-12 12:01:00,21.0,-99.9,-100.00,ESE,113,6.0,10.0,-999,0.00,,,0.00,,2013-02-12 17:01:00,
2013-02-12 12:12:00,21.0,-99.9,-100.00,ESE,113,6.0,10.0,-999,0.00,,,0.00,,2013-02-12 17:12:00,
2013-02-12 12:22:00,22.0,-99.9,-100.00,ESE,113,1.0,10.0,-999,0.00,,,0.00,,2013-02-12 17:22:00,
2013-02-12 12:32:00,22.0,-99.9,-100.00,ESE,113,1.0,6.0,-999,0.00,,,0.00,,2013-02-12 17:32:00,
2013-02-12 12:42:00,22.0,-99.9,-100.00,ESE,113,1.0,6.0,-999,0.00,,,0.00,,2013-02-12 17:42:00,
2013-02-12 12:52:00,23.0,-99.9,-100.00,ESE,113,2.0,6.0,-999,0.00,,,0.00,,2013-02-12 17:52:00,
2013-02-12 13:02:00,24.0,-99.9,-100.00,ESE,113,1.0,5.0,-999,0.00,,,0.00,,2013-02-12 18:02:00,
2013-02-12 13:12:00,23.0,-99.9,-100.00,ESE,113,1.0,9.0,-999,0.00,,,0.00,,2013-02-12 18:12:00,
2013-02-12 13:23:00,23.0,-99.9,-100.00,ESE,113,1.0,9.0,-999,0.00,,,0.00,,2013-02-12 18:23:00,
2013-02-12 13:32:00,23.0,-99.9,-100.00,ESE,113,2.0,12.0,-999,0.00,,,0.00,,2013-02-12 18:32:00,
2013-02-12 13:42:00,23.0,-99.9,-100.00,ESE,113,2.0,12.0,-999,0.00,,,0.00,,2013-02-12 18:42:00,
2013-02-12 13:52:00,23.0,-99.9,-100.00,ESE,113,2.0,12.0,-999,0.00,,,0.00,,2013-02-12 18:52:00,
2013-02-12 14:02:00,23.0,-99.9,-100.00,ESE,113,7.0,9.0,-999,0.00,,,0.00,,2013-02-12 19:02:00,
2013-02-12 14:11:00,23.0,-99.9,-100.00,ESE,113,2.0,8.0,-999,0.00,,,0.00,,2013-02-12 19:11:00,
2013-02-12 14:22:00,23.0,-99.9,-100.00,ESE,113,2.0,8.0,-999,0.00,,,0.00,,2013-02-12 19:22:00,
2013-02-12 14:32:00,23.0,-99.9,-100.00,ESE,113,2.0,8.0,-999,0.00,,,0.00,,2013-02-12 19:32:00,
2013-02-12 14:42:00,22.0,-99.9,-100.00,ESE,113,3.0,10.0,-999,0.00,,,0.00,,2013-02-12 19:42:00,
2013-02-12 14:52:00,22.0,-99.9,-100.00,ESE,113,3.0,10.0,-999,0.00,,,0.00,,2013-02-12 19:52:00,
2013-02-12 15:02:00,23.0,-99.9,-100.00,ESE,113,7.0,8.0,-999,0.00,,,0.00,,2013-02-12 20:02:00,
2013-02-12 15:11:00,23.0,-99.9,-100.00,ESE,113,7.0,8.0,-999,0.00,,,0.00,,2013-02-12 20:11:00,
2013-02-12 15:22:00,24.0,-99.9,-100.00,ESE,113,3.0,9.0,-999,0.00,,,0.00,,2013-02-12 20:22:00,
2013-02-12 15:32:00,24.0,-99.9,-100.00,ESE,113,1.0,12.0,-999,0.00,,,0.00,,2013-02-12 20:32:00,
2013-02-12 15:42:00,24.0,-99.9,-100.00,ESE,113,1.0,12.0,-999,0.00,,,0.00,,2013-02-12 20:42:00,
2013-02-12 15:52:00,23.0,-99.9,-100.00,ESE,113,3.0,12.0,-999,0.00,,,0.00,,2013-02-12 20:52:00,
2013-02-12 16:02:00,23.0,-99.9,-100.00,ESE,113,2.0,12.0,-999,0.00,,,0.00,,2013-02-12 21:02:00,
2013-02-12 16:11:00,23.0,-99.9,-100.00,ESE,113,2.0,12.0,-999,0.00,,,0.00,,2013-02-12 21:11:00,
2013-02-12 16:21:00,23.0,-99.9,-100.00,ESE,113,6.0,12.0,-999,0.00,,,0.00,,2013-02-12 21:21:00,
2013-02-12 16:32:00,23.0,-99.9,-100.00,ESE,113,3.0,10.0,-999,0.00,,,0.00,,2013-02-12 21:32:00,
2013-02-12 16:42:00,23.0,-99.9,-100.00,ESE,113,6.0,13.0,-999,0.00,,,0.00,,2013-02-12 21:42:00,
2013-02-12 16:52:00,23.0,-99.9,-100.00,ESE,113,6.0,13.0,-999,0.00,,,0.00,,2013-02-12 21:52:00,
2013-02-12 17:02:00,23.0,-99.9,-100.00,ESE,113,5.0,9.0,-999,0.00,,,0.00,,2013-02-12 22:02:00,
2013-02-12 17:12:00,23.0,-99.9,-100.00,ESE,113,5.0,9.0,-999,0.00,,,0.00,,2013-02-12 22:12:00,
2013-02-12 17:22:00,22.0,-99.9,-100.00,ESE,113,3.0,9.0,-999,0.00,,,0.00,,2013-02-12 22:22:00,
2013-02-12 17:32:00,22.0,-99.9,-100.00,ESE,113,5.0,8.0,-999,0.00,,,0.00,,2013-02-12 22:32:00,
2013-02-12 17:42:00,22.0,-99.9,-100.00,ESE,113,5.0,8.0,-999,0.00,,,0.00,,2013-02-12 22:42:00,
2013-02-12 17:52:00,22.0,-99.9,-100.00,ESE,113,3.0,12.0,-999,0.00,,,0.00,,2013-02-12 22:52:00,
2013-02-12 18:02:00,22.0,-99.9,-100.00,ESE,113,6.0,10.0,-999,0.00,,,0.00,,2013-02-12 23:02:00,
2013-02-12 18:12:00,22.0,-99.9,-100.00,ESE,113,2.0,9.0,-999,0.00,,,0.00,,2013-02-12 23:12:00,
2013-02-12 18:22:00,22.0,-99.9,-100.00,ESE,113,2.0,9.0,-999,0.00,,,0.00,,2013-02-12 23:22:00,
2013-02-12 18:32:00,22.0,-99.9,-100.00,ESE,113,5.0,9.0,-999,0.00,,,0.00,,2013-02-12 23:32:00,
2013-02-12 18:42:00,22.0,-99.9,-100.00,ESE,113,5.0,9.0,-999,0.00,,,0.00,,2013-02-12 23:42:00,
2013-02-12 18:52:00,22.0,-99.9,-100.00,ESE,113,3.0,12.0,-999,0.00,,,0.00,,2013-02-12 23:52:00,
2013-02-12 19:02:00,22.0,-99.9,-100.00,ESE,113,2.0,8.0,-999,0.00,,,0.00,,2013-02-13 00:02:00,
2013-02-12 19:11:00,22.0,-99.9,-100.00,ESE,113,2.0,8.0,-999,0.00,,,0.00,,2013-02-13 00:11:00,
2013-02-12 19:22:00,22.0,-99.9,-100.00,ESE,113,5.0,7.0,-999,0.00,,,0.00,,2013-02-13 00:22:00,
2013-02-12 19:32:00,21.0,-99.9,-100.00,ESE,113,3.0,9.0,-999,0.00,,,0.00,,2013-02-13 00:32:00,
2013-02-12 19:42:00,21.0,-99.9,-100.00,ESE,113,3.0,9.0,-999,0.00,,,0.00,,2013-02-13 00:42:00,
2013-02-12 19:52:00,20.0,-99.9,-100.00,ESE,113,2.0,7.0,-999,0.00,,,0.00,,2013-02-13 00:52:00,
2013-02-12 20:01:00,19.0,-99.9,-100.00,ESE,113,2.0,5.0,-999,0.00,,,0.00,,2013-02-13 01:01:00,
2013-02-12 20:11:00,19.0,-99.9,-100.00,ESE,113,2.0,5.0,-999,0.00,,,0.00,,2013-02-13 01:11:00,
2013-02-12 20:22:00,19.0,-99.9,-100.00,ESE,113,2.0,5.0,-999,0.00,,,0.00,,2013-02-13 01:22:00,
2013-02-12 20:32:00,18.0,-99.9,-100.00,ESE,113,2.0,8.0,-999,0.00,,,0.00,,2013-02-13 01:32:00,
2013-02-12 20:42:00,18.0,-99.9,-100.00,ESE,113,1.0,3.0,-999,0.00,,,0.00,,2013-02-13 01:42:00,
2013-02-12 20:52:00,18.0,-99.9,-100.00,ESE,113,1.0,3.0,-999,0.00,,,0.00,,2013-02-13 01:52:00,
2013-02-12 21:01:00,18.0,-99.9,-100.00,ESE,113,1.0,3.0,-999,0.00,,,0.00,,2013-02-13 02:01:00,
2013-02-12 21:11:00,18.0,-99.9,-100.00,ESE,113,1.0,3.0,-999,0.00,,,0.00,,2013-02-13 02:11:00,
2013-02-12 21:22:00,16.0,-99.9,-100.00,ESE,113,1.0,3.0,-999,0.00,,,0.00,,2013-02-13 02:22:00,
2013-02-12 21:32:00,15.0,-99.9,-100.00,ESE,113,1.0,3.0,-999,0.00,,,0.00,,2013-02-13 02:32:00,
2013-02-12 21:42:00,15.0,-99.9,-100.00,ESE,113,1.0,3.0,-999,0.00,,,0.00,,2013-02-13 02:42:00,
2013-02-12 21:52:00,15.0,-99.9,-100.00,ESE,113,1.0,3.0,-999,0.00,,,0.00,,2013-02-13 02:52:00,
2013-02-12 22:02:00,15.0,-99.9,-100.00,ESE,113,1.0,3.0,-999,0.00,,,0.00,,2013-02-13 03:02:00,
2013-02-12 22:12:00,15.0,-99.9,-100.00,ESE,113,1.0,3.0,-999,0.00,,,0.00,,2013-02-13 03:12:00,
2013-02-12 22:22:00,15.0,-99.9,-100.00,ESE,113,1.0,3.0,-999,0.00,,,0.00,,2013-02-13 03:22:00,
2013-02-12 22:32:00,15.0,-99.9,-100.00,ESE,113,1.0,3.0,-999,0.00,,,0.00,,2013-02-13 03:32:00,
2013-02-12 22:42:00,15.0,-99.9,-100.00,ESE,113,1.0,3.0,-999,0.00,,,0.00,,2013-02-13 03:42:00,
2013-02-12 22:52:00,14.0,-99.9,-100.00,ESE,113,0.0,2.0,-999,0.00,,,0.00,,2013-02-13 03:52:00,
2013-02-12 23:01:00,13.0,-99.9,-100.00,ESE,113,2.0,3.0,-999,0.00,,,0.00,,2013-02-13 04:01:00,
2013-02-12 23:11:00,13.0,-99.9,-100.00,ESE,113,2.0,3.0,-999,0.00,,,0.00,,2013-02-13 04:11:00,
2013-02-12 23:22:00,14.0,-99.9,-100.00,ESE,113,1.0,5.0,-999,0.00,,,0.00,,2013-02-13 04:22:00,
2013-02-12 23:32:00,14.0,-99.9,-100.00,ESE,113,1.0,3.0,-999,0.00,,,0.00,,2013-02-13 04:32:00,
2013-02-12 23:42:00,14.0,-99.9,-100.00,ESE,113,1.0,3.0,-999,0.00,,,0.00,,2013-02-13 04:42:00,
2013-02-12 23:52:00,12.0,-99.9,-100.00,ESE,113,0.0,2.0,-999,0.00,,,0.00,,2013-02-13 04:52:00,